Location: Avenches
(46.8809°N, 7.0410°E)
Time: 23:47:24
(UTC+00:00)

STARLINK-1111 - Pass Details

Date: 30 March 2020
Orbit: 549 x 551 km, 53.0° (Epoch: 24 May)

Event Time Altitude Azimuth Distance (km) Brightness Sun altitude
Rises 19:00:45 0° 297° (WNW) 2,724 9.2 -11.1°
Reaches altitude 10° 19:03:02 10° 302° (WNW) 1,828 7.7 -11.5°
Maximum altitude 19:07:06 53° 20° (NNE) 681 4.0 -12.2°
Enters shadow 19:09:56 19° 93° (E) 1,359 5.0 -12.6°
